Location: Izdebno
(52.6670°N, 16.2170°E)
Time: 04:47:07
(UTC+02:00)

Transit 4A - Pass Details

Date: 24 February 2024
Orbit: 871 x 972 km, 66.8° (Epoch: 22 April)

Event Time Altitude Azimuth Distance (km) Brightness Sun altitude
Rises 01:12:27 0° 191° (SSW) 3,603 - -45.1°
Reaches altitude 10° 01:15:08 10° 185° (S) 2,648 - -45.0°
Maximum altitude 01:20:52 42° 117° (ESE) 1,292 - -44.6°
Exits shadow 01:25:20 16° 53° (NE) 2,213 10.3 -44.3°
Drops below altitude 10° 01:26:29 10° 48° (NE) 2,597 10.8 -44.2°
Sets 01:29:04 0° 42° (NE) 3,527 11.7 -44.1°
